Free Severe Weather Alerts by Email and Text Message   

 
Follow iAlert.com on twitter @ialertcom
Search For Active Alerts in Your Area  
  Hi Guest:  [ Sign-up / Services ] [ Login ]

Current weather by "City, St" or "zip code"  

 

Advertise Here

Hazardous Weather Conditions

No active alerts for SAN ANTONIO, TEXAS

Current Conditions: SAN ANTONIO, TEXAS

Fair


77.0 F

Last Updated on Oct 23 2017, 12:55 pm CDT
Humidity: 29%
Wind Speed: SW 5.8 G 9.2 mph
Barometer 30.16 in
Dewpoint: 42.4 F
Visibility: 10.00 mi
Precip: --
Heat Index: NA
Wind Chill: NA
Current conditions at:

Castroville Municipal Airport, TX (KCVB)

Lat: 29.34 Lon: -98.850

Local Radar Image active severe weather and emergency alerts image image weather storm and storm spotter reports image weather observation monitoring service image
Local
Radar
Active
Alerts
Storm Reports Weather
Monitoring

Weather Alert Notification Services


ialert severe weather and emergency alerts by text message and email ialert daily weather forecast by email and text message service ialert real-time weather-observation monitoring and alert notification service ialert storm report monitoring alert notification

Observation History for SAN ANTONIO, TEXAS


Time Wind
(mph)
Vis
(mi)
Weather Precip (in) Temperature (F) Relative
Humidity
Wind
Chill
(°F)
Heat
Index
(°F)
Pressure
Air Dwpt altimeter
(in)
sea level
(mb)
12:55 pm CDT SW 5.8 G 9.2 10.00 Fair -- 77.0 42.4 29% NA NA 30.16 M
12:35 pm CDT SW 6.9 10.00 Fair -- 77.0 43.0 30% NA NA 30.17 M
11:55 am CDT N 0.0 7.00 Fair -- 74.0 43.7 34% NA NA 30.19 M
11:35 am CDT N 0.0 7.00 Fair -- 73.0 43.5 35% NA NA 30.20 M
10:55 am CDT S 5.8 7.00 Fair -- 70.0 42.4 37% NA NA 30.21 M
10:35 am CDT S 3.5 7.00 Fair -- 69.0 45.3 42% NA NA 30.21 M
9:55 am CDT N 0.0 10.00 Fair -- 64.0 47.1 54% NA NA 30.21 M
9:35 am CDT N 0.0 10.00 Fair -- 61.0 48.2 62% NA NA 30.21 M
8:55 am CDT NW 4.6 10.00 Fair -- 55.0 47.1 74% 54 NA 30.21 M
8:35 am CDT W 3.5 10.00 Fair -- 53.0 48.7 85% NA NA 30.20 M
7:55 am CDT NW 3.5 7.00 Fair -- 49.0 47.1 93% NA NA 30.19 M
6:55 am CDT NW 5.8 10.00 Fair -- 50.0 46.9 89% 48 NA 30.19 M
6:35 am CDT NW 5.8 10.00 Fair -- 50.0 46.4 86% 48 NA 30.19 M
5:55 am CDT NW 5.8 10.00 Fair -- 51.0 46.4 84% 49 NA 30.20 M
5:35 am CDT NW 5.8 10.00 Fair -- 51.0 46.2 84% 49 NA 30.19 M
4:55 am CDT W 4.6 10.00 Fair -- 50.0 45.5 84% 48 NA 30.18 M
4:35 am CDT NW 5.8 10.00 Fair -- 51.0 45.3 81% 49 NA 30.18 M
3:55 am CDT NW 5.8 10.00 Fair -- 52.0 45.1 79% 50 NA 30.19 M
3:35 am CDT NW 6.9 10.00 Fair -- 51.0 45.1 80% 48 NA 30.18 M
2:55 am CDT NW 5.8 10.00 Fair -- 51.0 45.1 79% 49 NA 30.19 M
2:35 am CDT NW 4.6 10.00 Fair -- 52.0 45.0 78% 51 NA 30.19 M
1:55 am CDT NW 5.8 10.00 Fair -- 52.0 45.0 77% 50 NA 30.19 M
1:35 am CDT NW 3.5 10.00 Fair -- 53.0 44.6 74% NA NA 30.19 M
12:35 am CDT N 0.0 10.00 Fair -- 55.0 44.4 68% NA NA 30.20 M

Regional Weather Observation:


San Antonio, San Antonio International Airport, TX (KSAT)

Fair
74.0 F

Kelly Air Force Base, TX (KSKF)

Fair
76.0 F

San Antonio, Stinson Municipal Airport, TX (KSSF)

Fair
78.0 F

Randolph Air Force Base, TX (KRND)

Fair
76.0 F

New Braunfels, New Braunfels Municipal Airport, TX (KBAZ)

Fair
77.0 F

Kerrville, Kerrville Municipal Airport/Louis Schreiner Field, TX (KERV)

Fair
74.0 F

Advertise Here


Advertise Here